Location: Doschendorf
(50.0069°N, 11.0602°E)
Time: 04:36:45
(UTC+00:00)

Cosmos 724 - Pass Details

Date: 17 November 2019
Orbit: 861 x 934 km, 65.6° (Epoch: 08 December)

Event Time Altitude Azimuth Distance (km) Brightness Sun altitude
Rises 16:50:12 0° 321° (NW) 3,495 7.8 -12.8°
Reaches altitude 10° 16:52:44 10° 323° (NW) 2,543 7.0 -13.2°
Maximum altitude 16:58:37 72° 48° (NE) 917 4.2 -14.1°
Drops below altitude 10° 17:04:23 10° 133° (SE) 2,498 6.3 -15.0°
Enters shadow 17:06:20 - 135° (SE) 3,233 6.9 -15.3°
